| time (UTC) | temp C | wind direction | speed KPH | gust KPH | rain 1hr cm | rain 24hr cm | rain mn cm | humidity % | barometer mb |
| 20260507161035 | 12 | 137 | 3.2 | 9.7 | 0.08 | 1.12 | 0.10 | 48 | 1021.4 |
| 20260507160016 | 11 | 154 | 1.6 | 8.0 | 0.08 | 1.09 | 0.08 | 48 | 1021.5 |
| 20260507155037 | 11 | 134 | 1.6 | 6.4 | 0.05 | 1.09 | 0.05 | 49 | 1021.5 |
| 20260507154016 | 10 | 134 | 1.6 | 6.4 | 0.05 | 1.09 | 0.05 | 49 | 1021.6 |
| 20260507153017 | 10 | 135 | 1.6 | 6.4 | 0.03 | 1.04 | 0.03 | 49 | 1021.6 |
| 20260507152055 | 9 | 138 | 1.6 | 6.4 | 0.03 | 1.04 | 0.03 | 50 | 1021.6 |
| 20260507151015 | 8 | 137 | 3.2 | 9.7 | 0.03 | 1.04 | 0.03 | 50 | 1021.5 |
| 20260507150016 | 8 | 131 | 1.6 | 4.8 | 0.00 | 1.02 | 0.00 | 50 | 1021.5 |
| 20260507145016 | 8 | 127 | 3.2 | 9.7 | 0.00 | 1.02 | 0.00 | 49 | 1021.5 |
| 20260507144036 | 7 | 136 | 3.2 | 11.3 | 0.00 | 1.02 | 0.00 | 51 | 1021.6 |
| 20260507143037 | 7 | 139 | 4.8 | 11.3 | 0.00 | 1.02 | 0.00 | 51 | 1021.5 |
| 20260507142018 | 7 | 136 | 3.2 | 8.0 | 0.00 | 1.02 | 0.00 | 51 | 1021.5 |
| 20260507141015 | 6 | 146 | 3.2 | 8.0 | 0.00 | 1.02 | 0.00 | 51 | 1021.6 |
| 20260507140015 | 6 | 131 | 3.2 | 12.9 | 0.00 | 1.02 | 0.00 | 50 | 1021.6 |
| 20260507135015 | 6 | 137 | 1.6 | 6.4 | 0.00 | 1.02 | 0.00 | 53 | 1021.5 |
| 20260507134016 | 5 | 139 | 3.2 | 8.0 | 0.00 | 1.02 | 0.00 | 53 | 1021.5 |
| 20260507133016 | 5 | 138 | 1.6 | 8.0 | 0.00 | 1.02 | 0.00 | 54 | 1021.5 |
| 20260507132017 | 4 | 130 | 1.6 | 6.4 | 0.00 | 1.02 | 0.00 | 55 | 1021.4 |
| 20260507131017 | 3 | 137 | 3.2 | 11.3 | 0.00 | 1.02 | 0.00 | 55 | 1021.4 |
| 20260507130035 | 3 | 132 | 3.2 | 9.7 | 0.00 | 1.02 | 0.00 | 56 | 1021.3 |
| 20260507125015 | 3 | 141 | 3.2 | 8.0 | 0.00 | 1.02 | 0.00 | 57 | 1021.2 |
| 20260507124016 | 2 | 132 | 1.6 | 3.2 | 0.00 | 1.02 | 0.00 | 58 | 1021.1 |
| 20260507123016 | 2 | 138 | 1.6 | 8.0 | 0.00 | 1.02 | 0.00 | 59 | 1020.9 |
| 20260507122056 | 2 | 136 | 1.6 | 4.8 | 0.00 | 1.02 | 0.00 | 59 | 1020.9 |
| 20260507121017 | 2 | 137 | 1.6 | 6.4 | 0.00 | 1.02 | 0.00 | 59 | 1020.8 |
| 20260507120017 | 2 | 136 | 1.6 | 4.8 | 0.00 | 1.02 | 0.00 | 60 | 1020.8 |
| 20260507115015 | 2 | 135 | 1.6 | 4.8 | 0.00 | 1.02 | 0.00 | 60 | 1020.6 |
| 20260507114015 | 2 | 136 | 1.6 | 8.0 | 0.00 | 1.02 | 0.00 | 59 | 1020.7 |
| 20260507113016 | 2 | 133 | 1.6 | 4.8 | 0.00 | 1.02 | 0.00 | 59 | 1020.7 |
| 20260507112016 | 2 | 139 | 1.6 | 3.2 | 0.00 | 1.02 | 0.00 | 59 | 1020.6 |
| 20260507111016 | 2 | 137 | 1.6 | 4.8 | 0.00 | 1.02 | 0.00 | 58 | 1020.6 |
| 20260507110017 | 2 | 136 | 3.2 | 8.0 | 0.00 | 1.02 | 0.00 | 59 | 1020.7 |
| 20260507105017 | 2 | 139 | 3.2 | 9.7 | 0.00 | 1.02 | 0.00 | 59 | 1020.7 |
| 20260507104035 | 2 | 137 | 3.2 | 6.4 | 0.00 | 1.02 | 0.00 | 60 | 1020.7 |
| 20260507103015 | 2 | 136 | 4.8 | 8.0 | 0.00 | 1.02 | 0.00 | 60 | 1020.7 |
| 20260507102015 | 2 | 134 | 1.6 | 6.4 | 0.00 | 1.02 | 0.00 | 61 | 1020.8 |
| 20260507101016 | 1 | 139 | 3.2 | 6.4 | 0.00 | 1.02 | 0.00 | 62 | 1020.9 |
| 20260507100016 | 1 | 136 | 3.2 | 8.0 | 0.00 | 1.02 | 0.00 | 63 | 1021.0 |
| 20260507095057 | 1 | 138 | 1.6 | 6.4 | 0.00 | 1.02 | 0.00 | 63 | 1021.1 |
| 20260507094017 | 1 | 139 | 1.6 | 4.8 | 0.00 | 1.02 | 0.00 | 64 | 1021.1 |
| 20260507093017 | 1 | 138 | 3.2 | 6.4 | 0.00 | 1.02 | 0.00 | 64 | 1021.1 |
| 20260507092016 | 1 | 139 | 1.6 | 6.4 | 0.00 | 1.02 | 0.00 | 65 | 1021.0 |
| 20260507091015 | 2 | 133 | 3.2 | 8.0 | 0.00 | 1.02 | 0.00 | 64 | 1021.1 |
| 20260507090016 | 1 | 138 | 4.8 | 16.1 | 0.00 | 1.02 | 0.00 | 64 | 1021.0 |
| 20260507085016 | 1 | 138 | 3.2 | 8.0 | 0.00 | 1.02 | 0.00 | 67 | 1021.1 |
| 20260507084017 | 1 | 138 | 3.2 | 6.4 | 0.00 | 1.02 | 0.00 | 67 | 1021.3 |
| 20260507083017 | 1 | 134 | 3.2 | 6.4 | 0.00 | 1.02 | 0.00 | 68 | 1021.3 |
| 20260507082015 | 1 | 138 | 1.6 | 4.8 | 0.00 | 1.02 | 0.00 | 68 | 1021.3 |
| 20260507081015 | 1 | 141 | 3.2 | 9.7 | 0.00 | 1.02 | 0.00 | 70 | 1021.2 |
| 20260507080016 | 1 | 138 | 3.2 | 8.0 | 0.00 | 1.02 | 0.00 | 71 | 1021.5 |
| 20260507075056 | 1 | 137 | 3.2 | 8.0 | 0.00 | 1.02 | 0.00 | 73 | 1021.7 |
| 20260507074017 | 1 | 141 | 3.2 | 9.7 | 0.00 | 1.02 | 0.00 | 75 | 1021.9 |
| 20260507073037 | 0 | 140 | 3.2 | 8.0 | 0.00 | 1.02 | 0.00 | 77 | 1022.0 |
| 20260507072017 | 0 | 138 | 3.2 | 9.7 | 0.00 | 1.02 | 0.00 | 78 | 1022.0 |
| 20260507071035 | 0 | 137 | 3.2 | 8.0 | 0.00 | 1.02 | 0.00 | 80 | 1021.9 |
| 20260507070036 | 0 | 137 | 3.2 | 9.7 | 0.00 | 1.02 | 0.00 | 81 | 1021.9 |
| 20260507065016 | 0 | 140 | 3.2 | 9.7 | 0.00 | 1.02 | 0.00 | 82 | 1021.9 |
| 20260507064016 | 0 | 137 | 1.6 | 6.4 | 0.00 | 1.02 | 0.00 | 82 | 1022.1 |
| 20260507063016 | 0 | 137 | 3.2 | 8.0 | 0.00 | 1.02 | 0.00 | 82 | 1021.9 |
| 20260507062017 | 0 | 136 | 3.2 | 6.4 | 0.00 | 1.02 | 0.00 | 82 | 1021.9 |
| 20260507061014 | 0 | 138 | 3.2 | 9.7 | 0.00 | 1.02 | 0.00 | 82 | 1022.0 |
| 20260507060015 | 0 | 137 | 3.2 | 6.4 | 0.00 | 1.02 | 0.00 | 83 | 1022.0 |
| 20260507055015 | 0 | 139 | 3.2 | 6.4 | 0.00 | 1.02 | 1.02 | 83 | 1022.1 |
| 20260507054016 | 0 | 140 | 3.2 | 8.0 | 0.00 | 1.02 | 1.02 | 83 | 1022.1 |
| 20260507053016 | 0 | 138 | 3.2 | 6.4 | 0.00 | 1.02 | 1.02 | 83 | 1022.0 |
| 20260507052037 | 0 | 134 | 3.2 | 6.4 | 0.00 | 1.02 | 1.02 | 83 | 1022.0 |
| 20260507051017 | 0 | 141 | 3.2 | 8.0 | 0.00 | 1.02 | 1.02 | 83 | 1021.9 |
| 20260507050014 | 0 | 140 | 3.2 | 6.4 | 0.00 | 1.02 | 1.02 | 83 | 1021.9 |
| 20260507045015 | 1 | 135 | 3.2 | 6.4 | 0.00 | 1.02 | 1.02 | 83 | 1021.9 |
| 20260507044016 | 1 | 137 | 4.8 | 11.3 | 0.00 | 1.02 | 1.02 | 83 | 1022.0 |
| 20260507043056 | 1 | 139 | 4.8 | 11.3 | 0.00 | 1.02 | 1.02 | 83 | 1022.0 |
| 20260507042016 | 1 | 139 | 4.8 | 11.3 | 0.00 | 1.02 | 1.02 | 83 | 1021.9 |
| 20260507041017 | 1 | 136 | 3.2 | 8.0 | 0.00 | 1.02 | 1.02 | 82 | 1021.9 |
| 20260507040017 | 1 | 139 | 4.8 | 11.3 | 0.00 | 1.02 | 1.02 | 82 | 1021.9 |
| 20260507035034 | 1 | 141 | 4.8 | 11.3 | 0.00 | 1.02 | 1.02 | 82 | 1021.8 |
| 20260507034035 | 1 | 139 | 3.2 | 12.9 | 0.00 | 1.02 | 1.02 | 81 | 1021.8 |
| 20260507033015 | 1 | 140 | 3.2 | 12.9 | 0.00 | 1.02 | 1.02 | 81 | 1021.7 |
| 20260507032056 | 1 | 141 | 3.2 | 11.3 | 0.00 | 1.02 | 1.02 | 81 | 1021.7 |
| 20260507031016 | 1 | 137 | 3.2 | 8.0 | 0.00 | 1.02 | 1.02 | 81 | 1021.7 |
| 20260507030016 | 1 | 140 | 1.6 | 6.4 | 0.00 | 1.02 | 1.02 | 82 | 1021.6 |
| 20260507025017 | 1 | 135 | 3.2 | 6.4 | 0.00 | 1.02 | 1.02 | 83 | 1021.5 |
| 20260507024014 | 1 | 141 | 1.6 | 6.4 | 0.00 | 1.02 | 1.02 | 83 | 1021.5 |
| 20260507023015 | 1 | 139 | 0.0 | 3.2 | 0.00 | 1.02 | 1.02 | 83 | 1021.5 |
| 20260507022016 | 1 | 132 | 0.0 | 3.2 | 0.03 | 1.02 | 1.02 | 82 | 1021.4 |
| 20260507021016 | 1 | 141 | 0.0 | 1.6 | 0.03 | 1.02 | 1.02 | 81 | 1021.5 |
| 20260507020016 | 2 | 146 | 0.0 | 1.6 | 0.03 | 1.02 | 1.02 | 79 | 1021.5 |
| 20260507015017 | 2 | 146 | 0.0 | 1.6 | 0.03 | 1.02 | 1.02 | 77 | 1021.6 |
| 20260507014017 | 2 | 137 | 0.0 | 3.2 | 0.05 | 1.02 | 1.02 | 76 | 1021.6 |
| 20260507013035 | 2 | 129 | 0.0 | 3.2 | 0.05 | 1.02 | 1.02 | 74 | 1021.6 |
| 20260507012015 | 3 | 131 | 1.6 | 3.2 | 0.05 | 0.99 | 0.99 | 73 | 1021.7 |
| 20260507011016 | 3 | 136 | 0.0 | 4.8 | 0.05 | 0.99 | 0.99 | 72 | 1021.8 |
| 20260507010036 | 3 | 136 | 1.6 | 6.4 | 0.05 | 0.99 | 0.99 | 72 | 1021.8 |
| 20260507005019 | 3 | 137 | 1.6 | 4.8 | 0.08 | 0.99 | 0.99 | 71 | 1021.8 |
| 20260507004017 | 3 | 141 | 1.6 | 3.2 | 0.08 | 0.99 | 0.99 | 70 | 1021.8 |
| 20260507003017 | 3 | 126 | 0.0 | 1.6 | 0.10 | 0.99 | 0.99 | 70 | 1021.9 |
| 20260507002035 | 4 | 136 | 1.6 | 4.8 | 0.13 | 0.97 | 0.97 | 68 | 1021.9 |
| 20260507001015 | 4 | 135 | 0.0 | 3.2 | 0.15 | 0.97 | 0.97 | 69 | 1021.9 |
| 20260507000015 | 4 | 147 | 1.6 | 6.4 | 0.15 | 0.94 | 0.94 | 69 | 1021.9 |
| 20260506235016 | 4 | 134 | 1.6 | 3.2 | 0.18 | 0.91 | 0.91 | 68 | 1021.9 |
| 20260506234016 | 4 | 136 | 0.0 | 4.8 | 0.18 | 0.89 | 0.89 | 69 | 1021.9 |
| 20260506233017 | 5 | 135 | 1.6 | 4.8 | 0.18 | 0.89 | 0.89 | 67 | 1022.0 |
| 20260506232017 | 4 | 138 | 0.0 | 3.2 | 0.15 | 0.84 | 0.84 | 67 | 1022.0 |
| 20260506231035 | 4 | 280 | 0.0 | 6.4 | 0.18 | 0.81 | 0.81 | 68 | 1022.1 |
| 20260506230015 | 3 | 140 | 0.0 | 3.2 | 0.15 | 0.79 | 0.79 | 71 | 1022.1 |
| 20260506225016 | 2 | 141 | 0.0 | 3.2 | 0.15 | 0.74 | 0.74 | 72 | 1022.2 |
| 20260506224056 | 2 | 137 | 1.6 | 4.8 | 0.15 | 0.74 | 0.71 | 72 | 1022.4 |
| 20260506223056 | 2 | 120 | 0.0 | 1.6 | 0.18 | 0.71 | 0.71 | 74 | 1022.4 |
| 20260506222016 | 2 | 134 | 1.6 | 6.4 | 0.20 | 0.71 | 0.69 | 74 | 1022.5 |
| 20260506221017 | 2 | 130 | 0.0 | 3.2 | 0.18 | 0.71 | 0.64 | 74 | 1022.6 |
| 20260506220015 | 2 | 136 | 1.6 | 3.2 | 0.20 | 0.71 | 0.61 | 76 | 1022.7 |
| 20260506215015 | 1 | 136 | 0.0 | 1.6 | 0.20 | 0.69 | 0.58 | 77 | 1022.8 |
| 20260506214035 | 1 | 143 | 1.6 | 3.2 | 0.23 | 0.69 | 0.56 | 77 | 1022.8 |
| 20260506213016 | 1 | 138 | 1.6 | 4.8 | 0.23 | 0.66 | 0.51 | 78 | 1022.9 |
| 20260506212036 | 2 | 132 | 1.6 | 4.8 | 0.25 | 0.64 | 0.48 | 78 | 1023.0 |
| 20260506211037 | 2 | 96 | 0.0 | 1.6 | 0.30 | 0.66 | 0.46 | 80 | 1023.0 |
| 20260506210017 | 2 | 96 | 0.0 | 1.6 | 0.33 | 0.64 | 0.43 | 79 | 1023.1 |
| 20260506205015 | 1 | 108 | 0.0 | 1.6 | 0.30 | 0.61 | 0.38 | 79 | 1023.1 |
| 20260506204035 | 2 | 97 | 0.0 | 3.2 | 0.25 | 0.61 | 0.33 | 79 | 1023.2 |
| 20260506203015 | 2 | 22 | 0.0 | 1.6 | 0.23 | 0.58 | 0.28 | 80 | 1023.4 |
| 20260506202016 | 2 | 310 | 0.0 | 1.6 | 0.15 | 0.56 | 0.23 | 79 | 1023.5 |
| 20260506201016 | 2 | 261 | 0.0 | 1.6 | 0.13 | 0.51 | 0.15 | 79 | 1023.5 |
| 20260506200037 | 2 | 95 | 0.0 | 3.2 | 0.05 | 0.48 | 0.10 | 80 | 1023.5 |
| 20260506195017 | 2 | 95 | 0.0 | 1.6 | 0.05 | 0.48 | 0.08 | 80 | 1023.4 |
| 20260506194015 | 2 | 314 | 0.0 | 1.6 | 0.03 | 0.48 | 0.05 | 80 | 1023.4 |
| 20260506193015 | 2 | 181 | 0.0 | 1.6 | 0.05 | 0.51 | 0.05 | 83 | 1023.5 |
| 20260506192015 | 2 | 308 | 0.0 | 3.2 | 0.05 | 0.51 | 0.05 | 83 | 1023.5 |
| 20260506191016 | 1 | 98 | 0.0 | 1.6 | 0.03 | 0.51 | 0.05 | 85 | 1023.6 |
| 20260506190017 | 1 | 76 | 0.0 | 4.8 | 0.03 | 0.53 | 0.05 | 86 | 1023.6 |
| 20260506185057 | 1 | 317 | 0.0 | 4.8 | 0.03 | 0.56 | 0.05 | 88 | 1023.6 |
| 20260506184035 | 0 | 304 | 0.0 | 1.6 | 0.03 | 0.56 | 0.05 | 89 | 1023.7 |
| 20260506183015 | 0 | 309 | 1.6 | 8.0 | 0.00 | 0.56 | 0.03 | 88 | 1023.8 |
| 20260506182015 | 0 | 340 | 0.0 | 4.8 | 0.00 | 0.56 | 0.03 | 89 | 1023.7 |
| 20260506181016 | 0 | 325 | 1.6 | 8.0 | 0.03 | 0.56 | 0.03 | 89 | 1023.6 |
| 20260506180057 | 0 | 303 | 1.6 | 6.4 | 0.03 | 0.56 | 0.03 | 89 | 1023.5 |
| 20260506175036 | 0 | 300 | 1.6 | 6.4 | 0.03 | 0.56 | 0.03 | 89 | 1023.4 |
| 20260506174017 | 1 | 35 | 0.0 | 3.2 | 0.03 | 0.56 | 0.03 | 90 | 1023.4 |
| 20260506173014 | 1 | 18 | 0.0 | 1.6 | 0.03 | 0.58 | 0.03 | 89 | 1023.4 |
| 20260506172015 | 1 | 97 | 0.0 | 1.6 | 0.03 | 0.58 | 0.03 | 89 | 1023.3 |
| 20260506171015 | 1 | 10 | 0.0 | 3.2 | 0.00 | 0.56 | 0.00 | 89 | 1023.1 |
| 20260506170036 | 1 | 281 | 0.0 | 3.2 | 0.00 | 0.56 | 0.00 | 90 | 1022.8 |
| 20260506165016 | 0 | 307 | 0.0 | 4.8 | 0.00 | 0.56 | 0.00 | 90 | 1022.7 |
| 20260506164017 | 0 | 305 | 0.0 | 4.8 | 0.00 | 0.56 | 0.00 | 90 | 1022.7 |
| 20260506163017 | 0 | 302 | 0.0 | 4.8 | 0.00 | 0.56 | 0.00 | 90 | 1022.6 |
| 20260506162015 | 0 | 271 | 0.0 | 3.2 | 0.00 | 0.56 | 0.00 | 91 | 1022.7 |